GFSSE_con_3kmhel_330.txt.gz
Helicity
38 44 15 18 21 26 30 49 65 82 79 82 59 35 20 30 53 46 46 47 49 53 49 45 29 20 13 5 8 16 19 20 18 16 20 33 34 32 19 31 -1 33 24
90 31 22 28 31 30 30 44 71 81 91 86 83 69 46 27 54 41 40 42 44 43 49 39 30 24 15 2 8 18 24 14 -10 -9 15 17 35 26 23 23 34 33 30
69 34 19 21 27 30 35 47 71 77 92 86 76 80 80 75 64 43 35 40 44 43 49 46 38 36 27 13 29 38 32 12 -9 -31 -26 31 33 49 54 43 46 48 58
58 27 19 23 21 25 32 55 71 72 80 87 81 74 77 70 61 49 42 42 43 44 48 49 44 38 38 41 78 72 37 -2 -13 -6 85 44 49 73 71 78 110 119 105
37 22 27 23 18 23 38 58 62 64 75 80 79 77 75 68 59 52 45 39 42 46 45 48 52 52 53 81 105 76 33 21 75 76 52 64 46 60 94 133 129 158 173
35 23 33 26 19 28 46 61 67 71 76 76 76 74 73 70 61 52 47 42 41 42 44 54 70 78 84 108 112 87 85 113 94 65 86 81 98 121 128 143 180 197 195
42 53 32 31 32 39 49 57 65 70 76 82 81 75 68 71 68 57 52 45 43 44 49 60 69 90 117 131 122 133 179 146 81 106 109 94 93 131 146 177 207 178 163
71 53 58 47 47 48 46 58 71 75 76 78 76 75 71 71 67 61 55 43 50 51 51 62 73 95 131 139 149 163 159 116 109 126 113 90 100 104 116 153 150 120 83
103 87 73 52 47 58 52 55 67 69 69 73 70 71 71 68 62 59 52 44 47 46 49 59 87 115 138 149 184 188 152 112 125 99 91 53 90 70 97 91 72 69 72
142 110 74 62 37 24 30 44 56 66 72 64 59 61 59 61 51 38 37 46 48 49 53 80 97 113 134 153 137 160 111 101 77 69 53 41 57 70 65 76 72 67 60
172 108 72 53 32 29 34 46 55 60 60 62 55 43 26 27 28 25 86 50 62 59 63 80 100 128 135 141 105 81 98 98 116 89 54 42 50 63 63 65 62 53 50
194 106 76 52 30 23 22 28 37 39 24 26 27 20 15 16 30 49 55 68 72 70 66 56 48 19 25 46 48 66 67 49 -17 46 48 38 54 61 59 56 49 41 37
159 91 57 57 9 9 23 11 21 23 25 22 23 9 22 19 16 13 36 43 40 30 27 17 6 24 63 42 51 48 44 42 64 52 42 46 50 51 56 56 42 38 41
149 97 54 27 10 2 13 3 31 32 29 21 25 18 15 17 14 11 16 28 37 26 41 50 66 81 85 77 68 63 55 47 42 46 88 105 97 71 56 53 47 38 43
141 132 62 29 15 22 21 41 45 54 43 46 30 26 13 17 32 33 36 51 72 59 73 94 97 81 75 72 64 60 57 55 51 51 62 175 128 99 60 58 49 34 34
139 120 98 40 30 37 37 44 51 56 55 48 40 38 39 39 42 60 73 73 69 76 89 108 97 63 85 65 65 41 40 44 54 50 23 80 108 78 61 56 45 30 32
150 90 90 73 36 44 44 56 60 61 54 50 46 48 51 46 55 60 69 55 52 92 126 107 90 78 68 67 50 32 23 37 46 46 22 27 40 60 61 54 48 36 35
132 110 146 87 46 52 57 65 62 67 52 41 42 49 58 57 55 50 55 64 83 78 68 74 59 53 54 41 31 30 41 38 45 42 18 15 15 27 45 49 46 41 45
169 102 98 77 54 66 67 77 77 67 53 47 43 48 54 58 54 50 56 72 55 67 60 54 42 25 40 48 46 40 45 50 49 18 33 26 35 35 27 58 56 43 44
151 126 104 73 83 84 81 82 70 63 53 39 39 45 40 42 40 35 46 52 41 54 51 35 31 27 32 65 79 54 69 67 28 16 28 27 34 32 30 19 17 51 46
156 125 89 85 76 99 78 72 68 67 59 46 36 36 31 28 27 21 24 15 -2 7 26 40 71 89 104 97 83 40 73 35 20 24 25 34 34 35 28 27 24 20 36
195 129 77 49 66 63 62 63 67 63 58 39 28 37 36 26 23 8 -8 -4 -22 19 61 88 103 107 84 42 49 52 28 19 24 24 29 36 31 36 39 36 29 27 21
57 122 61 36 50 54 72 93 96 72 57 35 32 43 57 36 14 12 3 10 33 45 75 90 80 87 62 26 30 0 3 8 27 29 32 41 35 45 41 45 36 30 25
-6 -13 6 35 36 46 60 66 47 45 44 34 49 72 88 65 31 39 74 73 85 51 68 69 49 28 58 46 36 6 -11 1 -5 24 43 42 47 49 48 49 46 43 33
83 51 32 19 23 34 40 37 33 39 42 46 86 88 86 70 59 77 102 100 55 40 51 47 50 30 35 27 11 4 -6 0 7 1 33 63 51 52 59 54 41 45 46
122 75 71 50 27 38 41 29 21 28 32 51 67 57 40 51 65 79 71 61 58 43 42 38 30 31 21 8 -3 -13 -17 -12 -4 11 18 42 48 81 67 54 51 47 52

GFSSE_con_3kmhel_336.txt.gz
Helicity
167 138 110 74 58 54 44 38 31 35 35 40 31 33 39 36 35 40 37 28 27 22 19 14 15 16 15 7 -3 -5 -13 -13 -8 8 41 41 39 40 51 72 57 33 42
182 122 109 75 68 53 38 35 38 33 32 37 35 39 36 36 41 47 43 31 27 23 18 10 2 7 7 -16 -13 -19 -15 -4 8 15 62 82 75 88 105 115 124 120 148
183 125 95 79 68 53 43 40 39 34 29 38 41 37 39 41 39 39 37 26 22 21 18 10 -1 10 5 1 7 -8 -16 19 70 101 64 49 65 82 109 134 126 143 144
165 117 83 78 67 54 39 38 32 29 31 37 41 41 41 47 45 36 34 23 21 18 22 23 25 29 35 34 44 44 43 81 111 137 91 64 60 100 99 114 130 130 124
146 101 82 82 65 50 43 36 29 36 38 37 39 41 38 38 38 31 24 26 25 30 34 43 53 58 69 68 83 80 80 141 110 123 122 68 33 68 95 102 99 95 90
207 110 78 74 55 62 54 32 34 40 32 34 31 30 31 33 30 32 29 32 36 41 50 56 69 92 105 127 153 137 150 150 146 100 82 89 63 87 87 93 77 73 78
233 113 79 74 65 51 36 39 42 36 29 29 31 30 31 36 37 40 42 45 52 56 60 73 98 128 152 173 178 183 196 178 105 79 63 23 8 54 58 59 69 75 73
202 140 85 80 80 68 55 51 37 30 39 40 41 35 36 43 47 49 54 49 50 57 64 89 122 143 160 176 182 169 165 93 73 46 28 -1 42 44 50 51 60 62 64
212 133 101 81 83 84 62 52 40 41 42 41 34 34 33 32 36 39 38 42 50 65 82 97 125 139 145 153 114 112 85 116 68 20 21 -7 45 55 61 62 74 70 58
149 120 101 78 72 65 51 51 46 41 31 23 22 24 23 24 35 51 53 52 62 64 72 89 95 100 93 48 58 111 105 111 50 24 -19 -8 42 53 61 72 64 44 40
106 103 80 59 52 57 59 48 53 40 24 14 3 3 -5 -10 9 21 46 57 71 58 59 75 74 48 -7 -39 8 61 51 -5 14 1 -14 24 40 57 60 57 55 54 48
132 102 76 61 53 41 52 25 31 17 -8 -25 -38 -68 -75 -2 11 67 63 76 62 41 35 28 24 10 -5 -55 -68 -2 12 39 16 18 12 39 61 58 50 42 50 44 42
104 112 64 52 45 25 74 11 8 -27 -37 -30 -26 -41 -38 80 58 59 55 47 30 35 10 -0 -8 -22 -13 -25 46 -7 22 103 84 65 90 115 88 55 45 43 42 43 40
65 96 85 67 59 117 26 -17 -2 -66 -53 -23 -4 3 45 60 64 44 36 21 5 -13 -16 -14 26 106 143 168 188 147 146 100 68 73 88 105 72 55 37 33 42 44 42
84 107 89 99 71 82 5 -52 -8 -64 -3 27 52 25 57 51 36 39 21 5 11 13 42 121 131 128 106 117 160 163 119 74 88 69 26 57 58 48 38 42 47 45 42
124 129 73 79 81 84 33 96 131 97 118 167 94 42 20 34 44 26 25 38 62 58 85 77 90 86 74 78 94 75 66 47 48 26 10 7 30 32 40 48 50 45 49
193 187 87 104 79 97 121 132 131 96 49 46 68 36 26 17 40 36 66 93 133 148 102 102 123 68 62 68 83 64 45 26 -15 39 10 -11 -5 26 24 44 29 45 52
205 193 109 112 104 70 120 121 106 92 35 124 31 39 28 46 76 58 85 117 138 109 66 85 82 58 18 -14 -16 34 64 63 36 37 21 13 4 -4 22 40 40 43 47
225 243 96 123 122 106 136 59 132 84 85 94 61 51 54 61 46 67 71 84 69 56 51 99 56 18 2 36 65 47 25 12 24 22 45 64 48 29 14 49 55 50 61
266 267 86 159 157 136 113 101 145 115 133 128 58 50 68 70 71 115 119 58 40 51 29 87 65 22 42 35 85 90 39 29 -15 1 26 25 28 43 17 31 12 27 80
274 260 168 247 171 169 132 173 109 118 112 94 114 67 66 70 81 131 141 75 49 55 57 92 52 101 98 138 75 38 18 -3 16 2 20 24 38 37 49 48 55 50 65
291 248 278 248 173 141 123 104 87 102 87 118 99 82 102 64 72 86 80 37 53 129 136 98 90 105 110 32 28 20 32 3 -17 23 46 52 58 49 42 47 50 59 67
300 264 279 245 184 139 112 82 94 137 167 146 108 96 79 66 52 54 48 9 58 141 146 146 109 133 62 -42 -19 49 37 46 37 22 30 69 53 66 40 39 53 59 109
261 251 261 243 206 148 74 116 173 178 135 91 83 102 81 78 75 54 38 43 111 144 151 111 75 33 52 17 -27 -7 25 23 10 38 82 56 50 61 76 80 63 64 87
258 242 297 266 242 105 47 198 180 125 103 105 146 115 99 87 62 49 56 94 149 155 115 70 29 22 34 41 26 18 19 17 27 35 71 32 68 60 51 61 73 81 145
261 248 273 225 189 64 145 184 136 109 157 158 134 113 118 100 84 61 70 111 114 128 90 52 57 36 41 30 29 23 33 33 21 46 67 35 74 75 101 80 81 85 108

GFSSE_con_3kmhel_342.txt.gz
Helicity
2 21 64 85 106 102 83 69 64 55 44 47 48 50 51 53 55 54 37 31 36 41 41 42 48 43 53 59 65 75 86 101 111 131 128 129 111 105 109 120 136 136 152
100 49 86 99 112 104 90 78 66 48 36 39 39 44 44 45 45 47 46 43 46 46 49 54 52 44 40 62 78 88 87 113 119 105 110 106 98 98 105 118 123 121 134
156 118 94 107 107 98 88 72 59 47 36 35 33 39 35 39 42 39 41 41 45 49 57 58 52 69 78 82 84 74 86 111 106 104 106 82 90 103 94 99 115 122 115
201 170 96 99 102 93 76 59 50 40 36 33 38 39 38 41 48 41 38 32 38 54 64 64 79 82 90 97 92 88 91 105 115 103 75 58 49 61 68 75 74 86 98
222 166 85 100 105 81 67 59 50 46 41 42 42 45 44 47 46 46 36 35 39 62 79 89 103 103 103 100 95 91 95 101 104 69 46 16 23 38 58 77 88 82 77
228 129 86 95 98 86 73 67 60 53 45 42 45 48 46 46 42 41 43 50 55 73 100 111 122 117 107 106 102 98 115 103 75 37 12 28 37 55 61 70 77 73 79
220 116 87 86 90 91 83 76 65 55 46 43 41 37 29 28 39 50 56 61 61 91 116 136 138 125 115 120 114 127 124 101 55 30 20 17 32 59 66 72 70 71 77
240 123 90 89 87 86 81 76 68 49 34 26 23 28 37 46 55 45 49 55 68 95 131 139 132 124 127 118 124 132 123 111 84 62 28 27 50 51 56 65 67 72 68
205 169 122 94 79 80 74 67 61 43 30 24 28 46 54 54 44 38 39 52 73 93 115 125 135 146 147 134 148 146 135 111 40 32 32 9 38 50 65 66 58 54 52
167 164 148 116 97 71 58 54 55 49 32 24 34 49 50 41 40 43 47 64 58 80 93 111 129 137 120 114 123 118 118 87 36 28 16 16 39 52 66 64 54 46 45
179 144 144 138 122 86 54 34 48 48 35 34 37 44 41 24 29 35 42 57 44 51 67 86 117 124 130 105 88 110 102 62 43 7 4 33 49 59 56 54 47 43 42
192 142 128 127 123 99 63 42 38 39 23 28 22 18 15 12 13 19 40 53 35 37 40 52 67 94 76 31 51 89 94 85 67 48 15 32 56 48 49 46 42 40 37
184 183 114 118 112 98 58 29 30 32 31 12 12 27 13 -2 27 26 35 28 32 35 33 48 74 85 77 53 56 54 89 77 68 91 71 44 41 39 37 37 34 30 28
207 174 140 101 106 78 61 18 16 34 28 2 -11 19 19 -1 8 18 15 18 3 6 50 39 61 149 134 99 73 53 45 24 42 49 74 81 53 41 33 34 32 30 29
219 187 137 112 82 71 54 11 18 19 -2 -28 -23 0 15 11 0 18 20 25 25 32 51 120 194 228 189 115 57 39 41 50 39 27 20 70 65 52 40 28 27 35 35
212 206 155 114 83 71 56 10 9 13 -33 -29 -6 12 43 39 15 27 38 42 54 48 107 135 189 246 186 100 41 40 62 61 23 13 1 11 49 52 45 31 28 35 42
252 244 183 109 93 68 37 -5 32 30 7 -22 1 15 40 71 31 31 59 58 92 146 190 214 250 244 177 75 37 44 60 54 19 -3 -13 -10 6 44 42 37 40 34 44
302 218 206 114 90 84 36 20 29 18 -1 23 35 15 53 75 64 43 71 105 169 198 212 225 221 201 121 45 57 53 53 33 -2 -10 -19 -12 -6 -3 28 41 46 43 49
199 224 186 126 117 109 51 60 42 61 71 73 81 88 108 113 96 80 99 142 224 232 217 205 182 156 74 45 76 62 31 17 -15 -21 -11 -9 -4 -2 4 44 46 47 47
169 203 218 195 119 134 122 120 139 109 93 105 95 95 131 125 126 117 126 196 257 247 213 162 156 131 80 96 83 50 -15 -38 -54 -54 -34 -15 -15 4 22 22 7 16 45
176 234 181 197 153 187 195 199 185 182 159 150 114 118 110 113 131 136 126 166 234 246 168 129 129 117 84 121 147 137 83 24 -15 -15 -14 -14 -12 -8 24 19 18 10 21
121 263 200 211 218 226 246 284 244 245 191 150 130 112 145 137 119 140 135 161 227 211 174 122 108 108 92 83 133 144 74 50 20 13 43 34 12 -3 19 29 29 17 18
91 300 243 216 239 243 293 358 341 312 288 176 142 118 150 143 111 128 127 155 166 181 145 99 109 148 107 49 79 75 79 49 70 11 13 46 57 49 62 56 48 23 18
192 324 246 251 277 300 309 332 359 351 276 200 138 92 121 144 111 126 126 140 149 131 140 115 130 158 122 57 -33 27 56 89 53 45 35 40 54 59 86 70 60 37 27
222 176 267 299 297 274 305 345 378 331 278 205 172 146 125 128 107 118 122 148 129 133 190 175 148 169 124 69 -4 48 62 94 55 51 55 67 57 47 76 87 68 47 38
299 170 113 271 319 276 300 317 300 298 264 208 181 169 125 120 126 133 115 94 103 177 215 172 149 138 110 60 36 34 68 86 46 47 53 86 74 63 76 88 79 61 38

GFSSE_con_3kmhel_345.txt.gz
Helicity
-2 -20 30 64 91 123 116 98 75 58 54 64 65 68 69 82 90 78 72 57 47 45 53 49 42 40 44 51 58 67 89 122 127 115 87 83 95 93 95 101 117 105 121
55 -4 42 81 105 131 121 105 81 69 68 73 81 91 92 88 91 73 54 42 39 38 36 31 38 47 59 66 65 76 102 100 97 109 127 140 106 87 92 100 106 93 113
62 38 51 93 112 128 120 109 88 79 74 73 86 95 97 89 81 65 48 39 34 32 30 37 50 57 74 76 72 78 97 100 102 109 122 91 75 72 58 76 79 82 83
73 59 72 88 113 119 123 120 101 84 77 81 90 94 93 78 73 58 44 43 46 43 46 50 57 67 72 78 82 85 99 108 112 109 67 51 46 59 77 74 68 84 89
68 64 75 88 105 115 124 125 109 91 88 85 89 86 84 76 70 54 47 54 62 50 56 63 64 66 82 86 88 104 111 104 84 45 27 23 14 47 77 89 82 74 70
91 79 74 92 103 110 126 125 111 98 89 81 78 71 61 65 67 60 63 58 54 66 73 69 73 88 102 102 99 103 87 78 49 13 27 43 34 62 72 76 82 77 73
124 83 83 100 111 104 116 118 110 97 85 65 56 54 56 64 66 71 64 60 78 89 84 91 98 111 103 86 92 94 78 57 3 -0 25 8 28 55 65 73 80 75 64
150 128 119 113 112 102 106 108 104 91 71 62 63 57 62 69 64 58 56 89 106 105 104 105 115 108 86 94 100 97 91 87 60 35 19 32 52 64 65 74 72 66 59
139 184 164 124 107 103 93 86 85 84 79 73 67 68 66 59 55 55 68 81 106 119 118 122 111 99 89 94 131 125 102 87 43 24 31 10 58 65 71 65 58 56 56
174 156 187 146 113 93 70 68 78 93 95 83 79 72 70 43 42 47 58 86 102 119 118 113 104 92 105 102 132 128 112 97 52 29 21 23 62 82 74 70 43 45 42
178 136 157 148 119 93 68 54 80 98 103 97 90 84 59 34 35 41 44 74 102 109 120 119 115 105 116 135 131 129 106 68 35 14 22 56 70 67 67 56 39 38 40
187 129 126 150 130 111 85 80 90 102 111 93 78 68 47 36 20 25 53 65 85 107 107 113 109 95 71 54 61 89 80 71 44 12 24 46 53 58 53 42 39 33 42
178 143 115 144 133 139 103 86 97 110 112 83 58 51 43 25 23 19 52 59 88 110 70 69 51 42 49 42 55 49 52 75 97 80 29 38 55 43 45 39 35 32 40
167 135 117 124 135 130 100 83 85 109 105 80 52 50 36 29 33 24 36 50 66 70 93 71 54 55 70 55 52 48 46 76 95 109 99 62 36 41 38 41 34 35 41
174 144 138 140 119 112 92 81 99 102 94 77 62 44 24 34 27 24 26 56 65 76 104 97 88 80 83 58 45 47 63 79 88 77 62 99 76 50 40 40 33 38 45
163 159 163 160 123 111 95 82 90 98 86 74 40 29 19 14 24 25 41 70 80 54 91 136 129 111 87 50 53 58 55 63 49 53 40 39 61 56 53 39 41 37 44
226 185 181 174 174 127 93 94 93 78 87 64 26 22 35 27 30 45 59 86 86 81 132 200 192 163 114 54 74 62 48 41 10 15 15 11 14 47 53 47 42 33 41
313 238 175 140 174 133 117 103 85 73 69 35 40 53 39 46 56 72 99 94 124 147 164 173 205 188 111 63 69 47 44 33 5 -6 2 4 7 -1 32 47 40 44 40
365 287 213 110 137 158 144 125 90 82 69 34 38 45 41 56 62 99 138 137 170 212 183 174 201 198 116 62 62 39 39 27 2 -10 -1 -2 9 6 4 38 41 39 34
422 299 191 140 122 149 208 155 123 95 101 86 52 58 63 56 87 130 170 201 227 247 203 190 231 152 110 80 77 65 62 54 20 -3 -2 -3 6 17 10 6 6 13 39
424 383 201 176 112 179 250 199 140 109 106 90 66 75 87 78 98 151 185 226 253 238 197 226 201 175 106 113 163 164 116 67 24 -11 -6 9 15 10 13 5 3 8 16
372 343 235 148 96 156 204 238 167 140 113 128 111 105 114 122 119 175 207 230 225 249 249 238 213 168 114 110 137 148 83 38 27 12 11 17 31 20 22 12 7 9 14
431 434 379 341 75 212 209 232 210 225 229 205 169 150 120 120 139 177 215 244 240 249 244 187 170 173 143 39 85 55 48 31 56 12 26 24 36 31 33 27 21 16 16
364 309 325 379 155 195 268 252 221 150 174 202 187 165 134 134 156 177 226 226 241 225 213 132 110 145 160 99 21 52 46 53 44 36 25 29 38 49 45 36 34 20 15
381 284 206 392 222 168 287 261 246 212 247 285 246 213 144 131 125 158 204 216 219 190 146 109 102 165 131 105 42 54 49 63 64 28 41 40 37 40 36 50 41 40 27
361 232 266 347 430 274 238 286 244 273 330 290 227 212 145 142 129 155 193 195 187 147 138 107 120 139 129 79 41 61 60 81 46 27 25 67 60 41 47 60 59 51 36

GFSSE_con_3kmhel_348.txt.gz
Helicity
6 -16 22 40 50 78 107 120 123 107 94 101 103 93 72 78 75 72 58 38 32 31 26 16 26 40 54 59 60 81 106 120 123 111 96 93 97 98 93 105 113 107 124
96 5 38 44 60 90 109 120 119 109 102 106 108 101 85 78 77 60 46 36 33 21 18 25 51 62 61 59 68 90 96 102 107 111 119 121 94 85 96 96 97 72 77
119 23 38 47 69 100 113 123 120 109 103 106 116 112 100 86 66 48 38 23 24 19 25 35 58 68 65 65 78 90 89 87 92 106 118 84 57 67 73 100 105 88 88
118 53 37 45 79 114 127 129 128 123 118 123 123 115 96 78 64 50 37 29 31 39 52 56 73 75 82 81 83 83 82 85 95 112 75 40 33 69 79 73 80 85 82
96 51 31 49 98 121 133 142 140 135 134 133 128 106 84 70 70 58 48 47 51 55 66 78 75 79 73 72 76 75 62 61 66 60 30 15 23 46 68 76 73 75 64
77 52 37 52 105 122 138 152 146 145 139 126 113 98 86 67 64 61 71 65 62 80 84 75 78 76 76 68 67 56 44 45 47 25 19 36 26 68 70 78 78 75 67
80 62 54 54 100 121 136 143 144 141 126 114 111 99 81 68 69 67 54 76 100 90 85 76 75 73 67 65 65 52 53 58 13 5 7 25 36 81 81 75 71 68 67
120 79 58 57 91 115 131 133 136 126 123 118 106 97 85 76 83 62 66 103 110 93 77 74 79 73 65 69 71 69 71 74 32 10 19 26 65 68 80 80 64 59 56
130 109 72 64 74 104 120 127 120 128 127 119 109 96 87 79 64 65 102 124 108 88 77 79 78 84 92 100 110 118 85 51 15 24 37 32 67 70 64 62 61 56 61
148 146 110 92 91 101 99 111 117 132 135 128 120 102 103 62 52 82 111 113 93 79 81 82 86 92 105 115 107 95 79 63 26 42 33 23 59 57 53 57 48 54 46
152 166 125 101 94 94 100 97 117 128 146 143 127 122 120 53 60 69 98 111 94 90 92 99 100 106 126 119 101 90 54 19 22 30 17 48 53 57 60 52 47 49 41
173 154 137 107 110 119 116 114 111 118 132 125 135 98 76 65 59 71 101 98 96 99 99 101 97 83 67 51 51 62 42 40 38 17 21 46 45 51 46 40 45 42 41
204 172 147 111 127 151 144 126 124 118 131 113 113 100 67 68 68 105 91 89 79 94 74 67 48 40 56 60 63 52 69 81 80 51 30 29 43 35 43 40 46 44 40
213 220 145 132 128 178 171 135 119 131 128 118 96 74 77 65 67 87 97 80 67 39 52 53 52 54 75 72 54 75 85 106 114 97 56 25 23 31 29 38 39 40 40
242 213 168 147 122 202 173 130 108 118 123 100 91 62 62 61 68 87 91 95 45 48 64 67 67 67 74 61 52 69 87 105 102 89 85 94 44 31 32 36 40 40 44
205 179 189 171 138 188 164 120 115 135 135 109 90 60 47 51 73 86 103 98 61 67 69 69 63 65 61 48 51 58 78 85 71 72 64 56 75 46 39 34 31 36 42
238 185 176 177 158 147 138 127 139 149 140 114 81 58 50 53 76 94 107 108 88 97 110 131 108 98 75 50 74 76 64 55 44 42 23 35 52 52 42 32 23 28 47
278 209 192 180 180 147 131 184 187 156 138 113 92 76 51 51 79 106 120 104 118 128 145 144 134 124 89 65 58 60 50 33 30 27 16 15 27 18 19 33 26 21 32
284 290 198 166 178 166 182 202 205 161 134 129 95 79 52 52 75 113 123 102 132 145 159 176 141 139 92 71 81 66 61 33 23 22 21 14 14 16 14 18 24 23 28
320 330 311 265 161 224 213 209 219 199 125 125 87 72 82 54 61 97 148 147 157 187 187 187 191 120 102 108 110 93 74 48 36 23 33 24 18 16 11 8 10 28 30
331 361 304 255 192 239 237 200 196 190 131 95 72 81 68 82 91 99 166 203 175 187 194 216 216 205 147 160 186 128 84 62 48 37 34 34 30 23 16 12 9 11 31
371 335 289 225 293 273 172 181 187 164 172 113 102 89 59 85 105 124 176 200 208 248 244 238 232 226 135 118 123 101 57 39 34 26 28 28 29 19 16 14 11 16 32
294 306 290 293 291 355 225 160 209 222 206 226 132 94 50 89 122 148 168 216 243 265 248 236 244 238 167 46 93 47 40 26 52 14 20 25 36 23 18 13 16 19 28
251 317 297 340 268 173 239 130 155 194 180 200 138 99 83 119 139 177 195 216 242 242 239 225 228 193 205 116 34 31 19 49 36 35 15 19 29 34 30 18 25 28 29
280 306 370 283 225 149 124 168 272 195 197 254 252 157 133 138 133 204 244 242 229 238 213 222 187 171 167 154 105 67 63 53 42 23 30 28 17 27 30 33 31 29 27
298 272 362 331 344 256 248 202 208 256 230 288 276 197 169 153 178 195 234 226 223 233 242 183 161 158 145 111 85 53 60 41 30 25 25 30 34 29 39 52 49 40 38